GOES 15

Last updated on Sat Dec 13 2025 00:02:34 GMT+0000 (Coordinated Universal Time)

1 36411U 10008A 25346.21717209 .00000048 00000+0 00000+0 0 9993 2 36411 0.8130 86.0572 0005771 174.6352 320.0676 1.00269708 57767
UTC large
Height (km)
Speed (km/s)
/
Latitude / Longitude
Inclination (degrees)
Orbital Period (minutes)
Azimuth
Elevation
Range (km)
Doppler Factor

Next 0 passes for location: London (51.5072 / 0.1276)

Sorry there are no passes over London.